|   |  | Asteroid 2011 WM46
					
					
					
					
						
					
					
						
							(Preview) 
						
							
								Orbital elements:
2011 WM46                                                Earth MOID = 0.2544 AU
Epoch 2011 Aug. 27.0 TT = JDT 2455800.5                 MPC
M 353.39800              (2000.0)            P               Q
n   0.27580597     Peri.  122.92511     +0.93410928     -0.15950278
a   2.3374031      Node   248.04710     +0.07726318     +0.96375816
e   0.5169804      Incl.   20.14151     +0.34852584     +0.21384355
P   3.57           H   19.... | Blobrana | 0 |  |  | 
		
			
			
				
				
					|   |  | Asteroid 2005 UG169
					
					
					
					
						
					
					
						
							(Preview) 
						
							
								Orbital elements:
2011 UG169                                               Earth MOID = 0.0919 AU
Epoch 2011 Aug. 27.0 TT = JDT 2455800.5                 MPC
M 315.93047              (2000.0)            P               Q
n   0.60723495     Peri.  295.09546     +0.71595044     -0.69767296
a   1.3811204      Node   109.15713     +0.64998973     +0.65259906
e   0.2177775      Incl.    1.56717     +0.25481036     +0.29557894
P   1.62           H   25.... | Blobrana | 0 |  |  | 
		
			
			
				
				
					|   |   | Asteroid 2005 UJ159
					
					
					
					
						
					
					
						
							(Preview) 
						
							
								Orbital elements:
2005 UJ159                                          PHA, Earth MOID = 0.0342 AU
Epoch 2011 Aug. 27.0 TT = JDT 2455800.5                 MPC
M 332.20528              (2000.0)            P               Q
n   0.16092392     Peri.   95.40271     -0.81561855     -0.08269078
a   3.3475134      Node    80.84428     -0.19659528     -0.89124172
e   0.8311899      Incl.   35.45339     +0.54416604     -0.44592649
P   6.12           H... | Blobrana | 1 |  |  | 
		
			
			
				
				
					|   |  | Asteroid 2002 QC7
					
					
					
					
						
					
					
						
							(Preview) 
						
							
								The 280 - 630 metre wide asteroid 2002 QC7 will make a close pass (27.8 lunar distances, 0.0714 AU), travelling at 15.17 km/second, to the Earth-Moon system on the 28th February, 2012 @ 16:52 UT ±00:01.   See more  The Lunar Di...               | Blobrana | 0 |  |  | 
		
			
			
				
				
					|   |  | Asteroid 2011 WC44
					
					
					
					
						
					
					
						
							(Preview) 
						
							
								Orbital elements:
2011 WC44                                                Earth MOID = 0.0980 AU
Epoch 2011 Aug. 27.0 TT = JDT 2455800.5                 MPC
M 352.63786              (2000.0)            P               Q
n   0.29289281     Peri.   91.26266     +0.85790247     +0.40124965
a   2.2455889      Node   245.16183     -0.48269521     +0.84345435
e   0.6757679      Incl.   20.71091     +0.17609285     +0.35718829
P   3.37           H   20.5... | Blobrana | 0 |  |  | 
		
			
			
				
				
					|   |  | Asteroid 2011 WE44
					
					
					
					
						
					
					
						
							(Preview) 
						
							
								Orbital elements:
2011 WE44                                                Earth MOID = 0.2592 AU
Epoch 2011 Aug. 27.0 TT = JDT 2455800.5                 MPC
M 328.55052              (2000.0)            P               Q
n   0.30191597     Peri.  191.52576     +0.21889019     -0.91400709
a   2.2006214      Node   246.60283     +0.92220985     +0.30815554
e   0.4359597      Incl.   21.85044     +0.31877278     -0.26387726
P   3.26           H   20.... | Blobrana | 0 |  |  | 
		
			
			
				
				
					|   |  | Asteroid 2011 WG44
					
					
					
					
						
					
					
						
							(Preview) 
						
							
								Orbital elements:
2011 WG44                                                Earth MOID = 0.2002 AU
Epoch 2011 Aug. 27.0 TT = JDT 2455800.5                 MPC
M 296.97279              (2000.0)            P               Q
n   0.58670971     Peri.  201.31929     +0.21596462     -0.95381726
a   1.4131465      Node   236.77280     +0.92804921     +0.26697872
e   0.1647248      Incl.   14.45351     +0.30345337     -0.13767718
P   1.68           H   22.... | Blobrana | 0 |  |  | 
		
			
			
				
				
					|   |  | Asteroid 2011 WF44
					
					
					
					
						
					
					
						
							(Preview) 
						
							
								Orbital elements:
2011 WF44                                                Earth MOID = 0.0032 AU
Epoch 2011 Aug. 27.0 TT = JDT 2455800.5                 MPC
M 344.02426              (2000.0)            P               Q
n   0.37096900     Peri.  119.34970     +0.99285514     +0.10613341
a   1.9182754      Node   234.60941     -0.11871192     +0.92484692
e   0.5902882      Incl.    3.83590     +0.01208892     +0.36523126
P   2.66           H   25.0... | Blobrana | 0 |  |  | 
		
			
			
				
				
					|   |  | Asteroid 2011 WS41
					
					
					
					
						
					
					
						
							(Preview) 
						
							
								Orbital elements:
2011 WS41
Epoch 2011 Nov. 15.0 TT = JDT 2455880.5                 MPC
M   6.84195              (2000.0)            P               Q
n   0.04464650     Peri.  313.33461     -0.71195582     +0.33373378
a   7.8694516      Node   104.23155     +0.66831554     +0.59212609
e   0.7605345      Incl.  140.40076     -0.21557653     +0.73349060
P  22.1            H   17.8           G   0.15
From 12 observ... | Blobrana | 0 |  |  | 
		
			
			
				
				
					|   |  | Asteroid 2011 WR41
					
					
					
					
						
					
					
						
							(Preview) 
						
							
								Orbital elements:
2011 WR41                                                Earth MOID = 0.0396 AU
Epoch 2011 Aug. 27.0 TT = JDT 2455800.5                 MPC
M  55.37753              (2000.0)            P               Q
n   1.35787641     Peri.  349.32992     -0.39770696     +0.91292192
a   0.8076612      Node   257.18523     -0.83472609     -0.40148462
e   0.3535985      Incl.    5.39423     -0.38086943     -0.07337348
P   0.73           H   25.0           G...                        | Blobrana | 0 |  |  | 
		
			
			
				
				
					|   |  | Asteroid 2011 WO41
					
					
					
					
						
					
					
						
							(Preview) 
						
							
								Orbital elements:
2011 WO41                                                Earth MOID = 0.1745 AU
Epoch 2011 Nov. 15.0 TT = JDT 2455880.5                 MPC
M 320.89760              (2000.0)            P               Q
n   0.37952619     Peri.  139.14616     -0.31823037     +0.89326789
a   1.8893317      Node   110.09706     -0.93375614     -0.23748001
e   0.6302351      Incl.   19.75983     -0.16379531     -0.38167490
P   2.60           H   16.... | Blobrana | 0 |  |  | 
		
			
			
				
				
					|   |  | Asteroid 2011 WP41
					
					
					
					
						
					
					
						
							(Preview) 
						
							
								Orbital elements:
2011 WP41                                                Earth MOID = 0.0669 AU
Epoch 2011 Aug. 27.0 TT = JDT 2455800.5                 MPC
M 348.18879              (2000.0)            P               Q
n   0.36309570     Peri.  292.37887     +0.97785144     +0.11629627
a   1.9459065      Node    61.32541     -0.01956984     +0.87858105
e   0.5411665      Incl.   11.43998     -0.20838324     +0.46321758
P   2.71           H   24.2... | Blobrana | 0 |  |  | 
		
			
			
				
				
					|   |  | Asteroid 2011 WQ41
					
					
					
					
						
					
					
						
							(Preview) 
						
							
								Orbital elements:
2011 WQ41                                                Earth MOID = 0.1621 AU
Epoch 2011 Aug. 27.0 TT = JDT 2455800.5                 MPC
M 347.39761              (2000.0)            P               Q
n   0.40823157     Peri.   46.50333     +0.98176797     -0.18739081
a   1.7996926      Node   324.26227     +0.15482267     +0.88562553
e   0.3564039      Incl.    3.12888     +0.11027965     +0.42491423
P   2.41           H   22.6           G... | Blobrana | 0 |  |  | 
		
			
			
				
				
					|   |  | Asteroid 2011 WD39
					
					
					
					
						
					
					
						
							(Preview) 
						
							
								Orbital elements:
2011 WD39                                                Earth MOID = 0.4210 AU
Epoch 2011 Aug. 27.0 TT = JDT 2455800.5                 MPC
M 142.10716              (2000.0)            P               Q
n   0.67450414     Peri.  349.68589     -0.56046143     +0.37176589
a   1.2876949      Node   240.99786     -0.68675600     -0.70805064
e   0.5434072      Incl.   57.79600     -0.46287059     +0.60037856
P   1.46           H   19.... | Blobrana | 0 |  |  | 
		
			
			
				
				
					|   |  | Asteroid 2011 WC39
					
					
					
					
						
					
					
						
							(Preview) 
						
							
								Orbital elements:
2011 WC39                                                Earth MOID = 0.0835 AU
Epoch 2011 Aug. 27.0 TT = JDT 2455800.5                 MPC
M 320.45222              (2000.0)            P               Q
n   0.54504441     Peri.  331.97143     +0.68222041     -0.71528786
a   1.4842764      Node    74.56870     +0.69675360     +0.57324217
e   0.2889993      Incl.    9.03971     +0.22160715     +0.39969576
P   1.81           H   23.1           G...                        | Blobrana | 0 |  |  |